Location: Castro Valley
(37.6940°N, 122.0850°W)
Time: 10:27:22
(UTC-07:00)

Amateur Radio Satellites - All Passes

Search period start: 30 October 2014 09:57
Search period end: 31 October 2014 09:57
Location: Castro Valley, 37.6940°N, 122.0850°W

Satellite Date Start Highest point End Downlink Frequencies (MHz)
Time Altitude Azimuth
ISS 30 Oct 09:58:47 10:01:31 24° 132° (SE) 10:04:16 145.800 FM
SO-50 30 Oct 10:24:50 10:25:59 11° 106° (ESE) 10:27:08 436.795 FM
Oscar 11 30 Oct 10:25:04 10:29:05 37° 98° (E) 10:33:05 145.825 FM, Beacon 2401.500 USB
HO-68 30 Oct 10:31:22 10:38:34 80° 288° (WNW) 10:45:44 435.675 MHz FM
FUNcube-1 30 Oct 10:39:24 10:42:35 21° 95° (E) 10:45:44 145.950 - 145.970 MHz USB
PCSat 30 Oct 10:44:35 10:47:29 14° 45° (NE) 10:50:22 145.825 MHz
KITSAT 1 30 Oct 11:10:21 11:18:16 64° 113° (ESE) 11:26:14 435.175 FM
UKube-1 30 Oct 11:25:04 11:29:11 42° 288° (WNW) 11:33:17 145.840 MHz, 145.915 MHz
ZACube-1 30 Oct 11:31:41 11:35:54 88° 284° (WNW) 11:40:02 437.345 MHz
ISS 30 Oct 11:35:04 11:38:06 32° 327° (NNW) 11:41:09 145.800 FM
SO-50 30 Oct 12:01:24 12:05:51 69° 302° (WNW) 12:10:28 436.795 FM
Oscar 11 30 Oct 12:02:07 12:04:57 17° 293° (WNW) 12:07:48 145.825 FM, Beacon 2401.500 USB
Sapphire 30 Oct 12:04:26 12:09:47 55° 59° (ENE) 12:15:05 437.095 MHz 1200 baud AX-25 AFSK
FUNcube-1 30 Oct 12:15:24 12:18:57 27° 290° (WNW) 12:22:27 145.950 - 145.970 MHz USB
HO-68 30 Oct 12:21:36 12:25:08 15° 306° (NW) 12:28:40 435.675 MHz FM
PCSat 30 Oct 12:26:11 12:31:39 89° 244° (WSW) 12:37:03 145.825 MHz
Oscar 16 30 Oct 12:42:48 12:46:13 18° 64° (ENE) 12:49:37 437.025 USB, Beacon 2401.1428
UOSAT-12 30 Oct 12:51:24 12:55:35 35° 114° (ESE) 12:59:50 437.025 FM, 437.400 FM
KITSAT 1 30 Oct 13:07:16 13:14:11 30° 313° (NW) 13:21:08 435.175 FM
JAS-1B 30 Oct 13:07:23 13:12:16 29° 67° (ENE) 13:17:06 435.800 - 435.900 CW/SSB
Uribyol 2 30 Oct 13:14:19 13:17:18 16° 63° (ENE) 13:20:16 436.500 FM
ITAMSAT 1 30 Oct 13:21:39 13:24:55 17° 63° (ENE) 13:28:13 435.822 SSB
AO-Echo 30 Oct 13:25:43 13:29:33 23° 66° (ENE) 13:33:30 ?
Oscar 19 30 Oct 13:33:14 13:38:13 54° 73° (ENE) 13:43:13 437.125 CW, 437.150 USB
Sapphire 30 Oct 13:49:06 13:52:42 18° 255° (WSW) 13:56:18 437.095 MHz 1200 baud AX-25 AFSK
AO-27 30 Oct 14:06:58 14:11:55 46° 71° (ENE) 14:16:54 436.795 MHz FM
Gurwin Techsat 1B 30 Oct 14:17:13 14:21:46 30° 68° (ENE) 14:26:20 435.225 FM
Oscar 16 30 Oct 14:20:07 14:25:08 52° 260° (W) 14:30:09 437.025 USB, Beacon 2401.1428
TMSAT-1 30 Oct 14:24:33 14:28:51 26° 67° (ENE) 14:33:11 436.925 FM
UOSAT-12 30 Oct 14:31:52 14:35:46 26° 311° (NW) 14:39:44 437.025 FM, 437.400 FM
Uribyol 2 30 Oct 14:51:01 14:56:12 64° 258° (WSW) 15:01:24 436.500 FM
JAS-1B 30 Oct 14:57:47 15:02:54 31° 263° (W) 15:07:55 435.800 - 435.900 CW/SSB
ITAMSAT 1 30 Oct 14:58:48 15:03:55 57° 259° (W) 15:09:04 435.822 SSB
AO-Echo 30 Oct 15:03:27 15:08:02 38° 263° (W) 15:12:48 ?
Saudisat 1A 30 Oct 15:14:38 15:19:01 59° 57° (ENE) 15:23:22 436.775 MHz
Oscar 19 30 Oct 15:14:44 15:17:51 16° 268° (W) 15:20:58 437.125 CW, 437.150 USB
Uosat F 30 Oct 15:19:01 15:20:28 11° 60° (ENE) 15:21:56 435.120 FM
AO-27 30 Oct 15:47:56 15:51:37 19° 266° (W) 15:55:20 436.795 MHz FM
AO-7 30 Oct 15:51:40 15:59:33 52° 66° (ENE) 16:07:29 29.400 - 29.500 MHz
Gurwin Techsat 1B 30 Oct 15:56:58 16:01:38 31° 263° (W) 16:06:20 435.225 FM
TMSAT-1 30 Oct 16:03:43 16:08:34 36° 262° (W) 16:13:27 436.925 FM
ISS 30 Oct 16:28:51 16:31:26 20° 27° (NNE) 16:34:01 145.800 FM
JAS-2 30 Oct 16:35:24 16:40:09 23° 60° (ENE) 16:45:19 435.800 - 435.900 CW/SSB, 435.910 FM
Uosat F 30 Oct 16:53:29 16:58:31 83° 257° (WSW) 17:03:35 435.120 FM
Saudisat 1A 30 Oct 16:56:09 16:58:03 13° 252° (WSW) 16:59:57 436.775 MHz
Hamsat 30 Oct 17:05:36 17:07:54 15° 67° (ENE) 17:10:11 145.90 MHz
OPAL 30 Oct 17:23:03 17:25:46 15° 94° (E) 17:28:28 ?
AO-7 30 Oct 17:45:20 17:52:31 33° 263° (W) 17:59:47 29.400 - 29.500 MHz
ISS 30 Oct 18:05:04 18:08:19 50° 224° (SW) 18:11:33 145.800 FM
JAS-2 30 Oct 18:18:27 18:24:29 61° 260° (W) 18:31:23 435.800 - 435.900 CW/SSB, 435.910 FM
Oscar 10/S400 30 Oct 18:25:15 18:48:15 65° 185° (S) 03:58:29 145.825 - 145.975 CW/USB, Beacon 145.810 USB
SO-67 30 Oct 18:31:44 18:33:25 13° 68° (ENE) 18:35:07 435.3500 MHz FM
Hamsat 30 Oct 18:39:29 18:43:28 42° 261° (W) 18:47:27 145.90 MHz
SO-50 30 Oct 18:57:43 18:57:55 10° 39° (NE) 18:58:06 436.795 FM
OPAL 30 Oct 19:00:07 19:04:58 56° 289° (WNW) 19:09:47 ?
KITSAT 1 30 Oct 19:06:11 19:12:33 25° 43° (NE) 19:18:52 435.175 FM
AO-40 30 Oct 19:11:57 00:18:50 41° 141° (SE) 01:52:35 Beacon 2401.320
HO-68 30 Oct 19:16:03 19:18:03 11° 52° (NE) 19:20:03 435.675 MHz FM
STRAND 1 30 Oct 19:16:41 19:21:06 28° 96° (E) 19:25:28 ?
RS-15 30 Oct 19:26:39 19:31:22 14° 97° (E) 19:36:01 29.354 - 29.394 USB, Beacon 29.352 USB
SO-67 30 Oct 20:03:04 20:06:06 29° 263° (W) 20:09:09 435.3500 MHz FM
SO-50 30 Oct 20:34:34 20:39:24 64° 57° (ENE) 20:44:15 436.795 FM
UKube-1 30 Oct 20:45:29 20:46:52 11° 63° (ENE) 20:48:15 145.840 MHz, 145.915 MHz
STRAND 1 30 Oct 20:55:43 21:00:13 31° 292° (WNW) 21:04:41 ?
HO-68 30 Oct 20:57:19 21:04:22 65° 70° (ENE) 21:11:29 435.675 MHz FM
KITSAT 1 30 Oct 21:00:45 21:08:51 82° 244° (WSW) 21:16:55 435.175 FM
Oscar 11 30 Oct 21:18:43 21:22:11 24° 69° (ENE) 21:25:38 145.825 FM, Beacon 2401.500 USB
UOSAT-12 30 Oct 21:23:00 21:26:35 21° 47° (NE) 21:30:08 437.025 FM, 437.400 FM
RS-15 30 Oct 21:30:44 21:41:42 75° 116° (ESE) 21:52:34 29.354 - 29.394 USB, Beacon 29.352 USB
FUNcube-1 30 Oct 21:34:34 21:37:18 16° 67° (ENE) 21:40:01 145.950 - 145.970 MHz USB
SO-50 30 Oct 22:16:56 22:19:26 14° 252° (WSW) 22:21:56 436.795 FM
UKube-1 30 Oct 22:18:11 22:22:29 63° 258° (WSW) 22:26:49 145.840 MHz, 145.915 MHz
ZACube-1 30 Oct 22:25:45 22:30:14 58° 75° (ENE) 22:34:37 437.345 MHz
MaSat-1 30 Oct 22:35:37 22:39:37 89° 285° (WNW) 22:43:14 437.345 MHz
HO-68 30 Oct 22:47:19 22:52:32 22° 267° (W) 22:57:47 435.675 MHz FM
Oscar 11 30 Oct 22:54:36 22:58:14 26° 264° (W) 23:01:53 145.825 FM, Beacon 2401.500 USB
KITSAT 1 30 Oct 22:59:20 23:02:59 14° 260° (W) 23:06:38 435.175 FM
UOSAT-12 30 Oct 23:02:28 23:06:58 46° 245° (WSW) 23:11:22 437.025 FM, 437.400 FM
FUNcube-1 30 Oct 23:08:56 23:13:18 45° 261° (W) 23:17:36 145.950 - 145.970 MHz USB
RS-15 30 Oct 23:45:30 23:55:02 33° 320° (NW) 00:04:40 29.354 - 29.394 USB, Beacon 29.352 USB
ZACube-1 31 Oct 00:05:18 00:06:54 12° 269° (W) 00:08:30 437.345 MHz
JAS-1B 31 Oct 00:55:22 00:56:16 10° 90° (E) 00:57:11 435.800 - 435.900 CW/SSB
PCSat 31 Oct 01:25:28 01:28:26 15° 104° (ESE) 01:31:24 145.825 MHz
Oscar 19 31 Oct 01:47:27 01:51:22 22° 94° (E) 01:55:16 437.125 CW, 437.150 USB
RS-15 31 Oct 02:06:37 02:12:24 15° 354° (N) 02:18:15 29.354 - 29.394 USB, Beacon 29.352 USB
AO-27 31 Oct 02:22:50 02:26:31 19° 93° (E) 02:30:10 436.795 MHz FM
Oscar 16 31 Oct 02:33:32 02:38:39 65° 102° (ESE) 02:43:43 437.025 USB, Beacon 2401.1428
Gurwin Techsat 1B 31 Oct 02:36:44 02:39:13 13° 91° (E) 02:41:41 435.225 FM
JAS-1B 31 Oct 02:40:11 02:47:26 70° 103° (ESE) 02:56:06 435.800 - 435.900 CW/SSB
Sapphire 31 Oct 02:44:06 02:49:28 76° 115° (ESE) 02:54:54 437.095 MHz 1200 baud AX-25 AFSK
TMSAT-1 31 Oct 02:44:26 02:45:46 11° 90° (E) 02:47:05 436.925 FM
Uribyol 2 31 Oct 03:05:44 03:10:50 54° 100° (E) 03:15:52 436.500 FM
PCSat 31 Oct 03:05:52 03:11:13 65° 299° (WNW) 03:16:38 145.825 MHz
AO-Echo 31 Oct 03:11:58 03:17:20 81° 103° (ESE) 03:22:35 ?
ITAMSAT 1 31 Oct 03:13:32 03:18:43 60° 101° (E) 03:23:50 435.822 SSB
Oscar 19 31 Oct 03:26:04 03:30:49 40° 289° (WNW) 03:35:33 437.125 CW, 437.150 USB
AO-7 31 Oct 03:57:07 04:02:10 17° 92° (E) 04:07:11 29.400 - 29.500 MHz
AO-27 31 Oct 04:01:14 04:06:14 47° 289° (WNW) 04:11:11 436.795 MHz FM
Gurwin Techsat 1B 31 Oct 04:14:20 04:19:37 68° 286° (WNW) 04:24:52 435.225 FM
Oscar 16 31 Oct 04:14:43 04:17:25 15° 297° (WNW) 04:20:06 437.025 USB, Beacon 2401.1428
TMSAT-1 31 Oct 04:20:55 04:26:14 79° 285° (WNW) 04:31:31 436.925 FM
RS-15 31 Oct 04:22:14 04:30:45 24° 31° (NNE) 04:39:28 29.354 - 29.394 USB, Beacon 29.352 USB
Sapphire 31 Oct 04:30:06 04:33:29 17° 313° (NW) 04:36:54 437.095 MHz 1200 baud AX-25 AFSK
JAS-1B 31 Oct 04:32:13 04:37:35 23° 296° (WNW) 04:43:38 435.800 - 435.900 CW/SSB
OPAL 31 Oct 04:35:38 04:39:39 24° 65° (ENE) 04:43:38 ?
Uribyol 2 31 Oct 04:46:27 04:49:50 18° 296° (WNW) 04:53:12 436.500 FM
AO-Echo 31 Oct 04:53:08 04:55:20 13° 299° (WNW) 04:57:31 ?
ITAMSAT 1 31 Oct 04:54:34 04:57:40 16° 297° (WNW) 05:00:45 435.822 SSB
PCSat 31 Oct 04:54:34 04:55:42 11° 319° (NW) 04:56:51 145.825 MHz
Uosat F 31 Oct 05:03:25 05:08:01 35° 98° (E) 05:12:36 435.120 FM
Saudisat 1A 31 Oct 05:20:00 05:23:27 23° 112° (ESE) 05:26:56 436.775 MHz
PANSAT 31 Oct 05:22:09 05:24:54 19° 173° (S) 05:27:39 not established
JAS-2 31 Oct 05:30:08 05:36:33 27° 92° (E) 05:42:44 435.800 - 435.900 CW/SSB, 435.910 FM
AO-7 31 Oct 05:47:26 05:55:48 87° 288° (WNW) 06:04:10 29.400 - 29.500 MHz
OPAL 31 Oct 06:13:33 06:18:17 38° 259° (W) 06:23:01 ?
Hamsat 31 Oct 06:26:45 06:30:39 35° 98° (E) 06:34:34 145.90 MHz
STRAND 1 31 Oct 06:30:46 06:35:21 34° 69° (ENE) 06:39:59 ?
RS-15 31 Oct 06:34:10 06:45:24 74° 57° (ENE) 06:57:07 29.354 - 29.394 USB, Beacon 29.352 USB
Uosat F 31 Oct 06:42:33 06:46:36 25° 293° (WNW) 06:50:38 435.120 FM
Saudisat 1A 31 Oct 06:58:52 07:02:50 33° 308° (NW) 07:06:49 436.775 MHz
PANSAT 31 Oct 07:01:42 07:04:29 19° 186° (S) 07:07:15 not established
JAS-2 31 Oct 07:14:11 07:21:54 61° 289° (WNW) 07:29:19 435.800 - 435.900 CW/SSB, 435.910 FM
SO-67 31 Oct 07:28:16 07:30:46 19° 95° (E) 07:33:15 435.3500 MHz FM
AO-7 31 Oct 07:42:07 07:47:26 19° 307° (NW) 07:52:46 29.400 - 29.500 MHz
Hamsat 31 Oct 08:03:31 08:06:19 17° 292° (WNW) 08:09:07 145.90 MHz
STRAND 1 31 Oct 08:10:20 08:14:33 26° 264° (W) 08:18:48 ?
MaSat-1 31 Oct 08:22:06 08:24:31 69° 247° (WSW) 08:26:50 437.345 MHz
HO-68 31 Oct 08:30:50 08:33:03 12° 89° (E) 08:35:14 435.675 MHz FM
PANSAT 31 Oct 08:43:19 08:43:57 10° 198° (SSW) 08:44:36 not established
RS-15 31 Oct 08:47:48 08:56:47 29° 256° (WSW) 09:06:06 29.354 - 29.394 USB, Beacon 29.352 USB
SO-67 31 Oct 09:01:02 09:03:38 20° 289° (WNW) 09:06:12 435.3500 MHz FM
JAS-2 31 Oct 09:02:49 09:05:18 12° 307° (NW) 09:07:46 435.800 - 435.900 CW/SSB, 435.910 FM
ISS 31 Oct 09:10:56 09:12:33 13° 128° (SE) 09:14:11 145.800 FM
KITSAT 1 31 Oct 09:35:21 09:40:00 17° 101° (E) 09:44:38 435.175 FM
